Hourly Data Report for October 02, 2017

All times are specified in Local Standard Time (LST). Add 1 hour to adjust for Daylight Saving Time where and when it is observed.

SWAN RIVER RCS
MANITOBA

52°06'53.900" N
101°13'58.500" W
334.80 m
504K80K
71443
WEQ

Download Data

Hourly Data (October 2017)
Hourly Data Report for October 2, 2017
Temp Definition
°C
Dew Point Temp Definition
°C
Rel Hum Definition
%
Wind Dir Definition
10's deg

Wind Spd Definition
km/h
Visibility Definition
km
Stn Press Definition
kPa
Hmdx Definition


Wind Chill Definition


Weather Definition


TIME
00:00 11.8 11.2 96 2 5   96.10     LegendNANA
01:00 12.5 11.7 95 36 9   96.05     LegendNANA
02:00 12.4 11.9 97 5 13   96.08     LegendNANA
03:00 12.8 12.4 97 6 13   96.07     LegendNANA
04:00 12.6 12.3 98 6 12   96.05     LegendNANA
05:00 12.5 12.4 99 5 13   96.05     LegendNANA
06:00 12.5 12.5 100 5 15   96.04     LegendNANA
07:00 12.5 12.5 100 5 18   96.02     LegendNANA
08:00 12.5 12.5 100 6 19   95.99     LegendNANA
09:00 12.7 12.7 100 5 20   96.02     LegendNANA
10:00 12.9 12.9 100 5 12   96.04     LegendNANA
11:00 13.3 13.2 99 5 11   96.04     LegendNANA
12:00 13.1 12.9 99 8 9   96.08     LegendNANA
13:00 10.5 9.3 93 23 21   96.15     LegendNANA
14:00 9.7 8.4 92 23 24   96.23     LegendNANA
15:00 10.0 7.5 85 23 26   96.27     LegendNANA
16:00 9.0 5.9 81 22 29   96.36     LegendNANA
17:00 8.3 5.3 81 21 27   96.46     LegendNANA
18:00 8.5 4.8 78 23 25   96.51     LegendNANA
19:00 8.3 5.0 80 23 22   96.61     LegendNANA
20:00 8.7 4.8 77 23 23   96.73     LegendNANA
21:00 8.0 5.4 83 23 25   96.81     LegendNANA
22:00 7.7 6.0 89 23 21   96.87     LegendNANA
23:00 7.3 6.7 95 22 16   96.94     LegendNANA

Notes on Data Quality.

Legend

  • E = Estimated
  • M = Missing
  • NA = Not Available
  • ‡ = Partner data that is not subject to review by the National Climate Archives
Date modified: